Mosul, Iraq

9:02 AM +03 on May 28, 2017 (GMT +0300)
Mosul

Weather History for ORBM - October, 2013

Change the Weather History Date:

Friday, October 18, 2013

  Actual Average Record
Temperature  
Mean Temperature 74 °F -  
Max Temperature 93 °F - - ()
Min Temperature 56 °F - - ()
Cooling Degree Days 10    
Growing Degree Days 24 (Base 50)    
Moisture  
Dew Point 40 °F    
Average Humidity 30    
Maximum Humidity 52    
Minimum Humidity 4    
Precipitation  
Precipitation 0.00 in - - ()
Sea Level Pressure  
Sea Level Pressure 29.86 in    
Wind  
Wind Speed 2 mph ()    
Max Wind Speed 16 mph    
Max Gust Speed -    
Visibility 3.1 miles    
Events      
T = Trace of Precipitation, MM = Missing Value Source: Averaged Metar Reports

Daily Weather History Graph

Daily Weather History Graph

Search for Another Location

Airport or City:

Trip Planner

Search our weather history database for the weather conditions in past years. The results will help you decide how hot, cold, wet, or windy it might be!

Date:

Astronomy

Oct. 18, 2013 Rise Set
Actual Time 6:17 AM +03 5:27 PM +03
Civil Twilight 5:51 AM +03 5:53 PM +03
Nautical Twilight 5:21 AM +03 6:23 PM +03
Astronomical Twilight 4:51 AM +03 6:53 PM +03
Moon 5:04 PM +03 (10/18) 5:29 AM +03 (10/18)
Length of Visible Light 12h 02m
Length of Day
11h 10m
Full, 100% of the Moon is Illuminated
Oct 18
Full
Oct 19
Full
Oct 27
Last Quarter
Nov 3
New
Nov 10
First Quarter

Hourly Weather History & Observations

Time (+03) Temp. Dew Point Humidity Pressure Visibility Wind Dir Wind Speed Gust Speed Precip Events Conditions
12:00 AM 60 °F 34 °F 26% 29.95 in 6 mi Calm Calm - -  
12:00 AM 64.4 °F 42.8 °F 45% 29.92 in - Calm Calm - N/A   Clear
1:00 AM 64.4 °F 41.0 °F 42% 29.92 in - Calm Calm - N/A   Clear
2:00 AM 62.6 °F 39.2 °F 42% 29.92 in - Calm Calm - N/A   Clear
3:00 AM 56 °F 39 °F 42% 29.94 in 6 mi Calm Calm - -  
3:00 AM 62.6 °F 41.0 °F 45% 29.92 in - Calm Calm - N/A   Clear
4:00 AM 60.8 °F 42.8 °F 52% 29.92 in - Calm Calm - N/A   Clear
5:00 AM 60.8 °F 41.0 °F 48% 29.92 in - Calm Calm - N/A   Clear
6:00 AM 57 °F 36 °F 34% 29.94 in 6 mi Calm Calm - -  
6:00 AM - - N/A% 29.92 in - Calm Calm - N/A   Clear
7:00 AM 60.8 °F 39.2 °F 45% 29.92 in 5.0 mi Calm Calm - N/A   Unknown
8:00 AM 60.8 °F 41.0 °F 48% 29.92 in 5.0 mi Calm Calm - N/A   Unknown
10:00 AM 77.0 °F 46.4 °F 34% 29.89 in 5.0 mi East 4.6 mph - N/A   Unknown
11:00 AM 86.0 °F 41.0 °F 20% 29.89 in 2.5 mi East 13.8 mph - N/A   Clear
12:00 PM - - %  in 4 mi Calm Calm - -  
12:00 PM 89.6 °F 41.0 °F 18% 29.86 in 3.1 mi ESE 2.3 mph - N/A   Clear
1:00 PM 91.4 °F 41.0 °F 17% 29.83 in 2.5 mi ESE 13.8 mph - N/A   Clear
2:00 PM 93.2 °F 35.6 °F 13% 29.80 in 1.9 mi NE 16.1 mph - N/A   Clear
3:00 PM 91 °F 20 °F 4% 29.76 in 3 mi SE 6.7 mph - -   Widespread Dust
4:00 PM 89.6 °F 35.6 °F 15% 29.77 in 0.9 mi East 4.6 mph - N/A   Clear
5:00 PM 87.8 °F 41.0 °F 19% 29.77 in 0.6 mi SE 4.6 mph - N/A   Clear
6:00 PM 87 °F 27 °F 5% 29.74 in 1 mi SE 8.9 mph - -   Widespread Dust
6:00 PM 86.0 °F 42.8 °F 22% 29.77 in 0.6 mi ESE 4.6 mph - N/A   Clear
7:00 PM 86.0 °F 37.4 °F 18% 29.80 in 0.6 mi South 11.5 mph - N/A   Clear
8:00 PM 84.2 °F 39.2 °F 20% 29.80 in 0.6 mi Calm Calm - N/A   Clear
9:00 PM 77.0 °F 46.4 °F 34% 29.83 in 2.5 mi Calm Calm - N/A   Clear
10:00 PM 73.4 °F 48.2 °F 41% 29.83 in 4.3 mi Calm Calm - N/A   Scattered Clouds
11:00 PM 71.6 °F 48.2 °F 43% 29.83 in 4.3 mi Calm Calm - N/A   Scattered Clouds